1513450800.8,28158,7.38,72242.0,-16.39,-48.13,-48.07,0,*6E
1513450802.07,28159,7.38,72238.3,-16.39,-48.27,-48.07,0,*68
1513450803.35,28160,7.38,72240.8,-16.39,-48.13,-48.07,0,*65
1513450804.63,28161,7.38,72240.0,-16.39,-48.13,-48.07,0,*64
1513450805.91,28162,7.38,72240.3,-16.39,-48.07,-47.71,0,*6C
1513450807.15,28163,7.38,72240.0,-16.39,-47.65,-47.51,0,*64
1513450808.42,28164,7.38,72242.0,-16.39,-47.93,-47.85,0,*63
1513450809.69,28165,7.38,72242.3,-16.39,-48.27,-48.07,0,*67
1513450810.99,28166,7.38,72242.5,-16.39,-48.13,-47.93,0,*61
1513450812.27,28167,7.38,72242.0,-16.39,-48.13,-48.07,0,*62
1513450813.54,28168,7.38,72240.5,-16.39,-48.27,-48.07,0,*6A
1513450814.84,28169,7.38,72240.0,-16.39,-48.13,-47.93,0,*6E
1513450816.1,28170,7.38,72240.3,-16.43,-48.21,-47.93,0,*6A
1513450817.35,28171,7.38,72242.5,-16.41,-48.13,-48.07,0,*6A
1513450818.6,28172,7.38,72242.5,-16.43,-47.99,-47.99,0,*6E
1513450819.86,28173,7.44,72244.0,-16.43,-47.79,-47.57,0,*63
1513450821.16,28174,7.38,72244.0,-16.43,-47.93,-47.79,0,*6C
1513450822.43,28175,7.38,72240.5,-16.41,-47.71,-47.45,0,*6C
1513450823.65,28176,7.38,72244.0,-16.41,-47.51,-47.31,0,*6E
1513450824.89,28177,7.44,72244.0,-16.41,-47.45,-47.09,0,*61
1513450826.14,28178,7.38,72236.8,-16.43,-47.57,-47.31,0,*64
1513450827.43,28179,7.38,72240.5,-16.43,-47.93,-47.79,0,*61
1513450828.72,28180,7.38,72242.0,-16.43,-47.93,-47.71,0,*6F
1513450829.99,28181,7.38,72240.5,-16.41,-47.93,-47.71,0,*6C
1513450831.22,28182,7.38,72240.5,-16.41,-47.85,-47.85,0,*63
1513450832.48,28183,7.38,72242.0,-16.43,-47.71,-47.51,0,*62
1513450833.72,28184,7.38,72238.8,-16.41,-47.45,-47.09,0,*6D
1513450835.0,28185,7.38,72240.5,-16.41,-47.45,-47.23,0,*64
1513450836.24,28186,7.38,72240.3,-16.41,-47.51,-47.45,0,*62
1513450837.49,28187,7.38,72242.3,-16.41,-47.45,-47.09,0,*6E
1513450838.74,28188,7.38,72246.3,-16.41,-47.93,-47.85,0,*6E
1513450839.96,28189,7.38,72240.3,-16.41,-47.51,-47.31,0,*6E
1513450841.2,28190,7.38,72242.0,-16.41,-47.51,-47.23,0,*65
1513450842.43,28191,7.38,72244.0,-16.41,-47.31,-46.97,0,*6C
1513450843.65,28192,7.38,72240.8,-16.41,-46.97,-46.75,0,*6E
1513450844.92,28193,7.38,72240.3,-16.39,-46.83,-46.61,0,*60
1513450846.2,28194,7.38,72242.0,-16.39,-47.23,-46.83,0,*60
1513450847.46,28195,7.44,72246.3,-16.37,-47.37,-47.03,0,*63
1513450848.71,28196,7.38,72242.3,-16.39,-47.51,-47.31,0,*6F
1513450849.95,28197,7.38,72242.3,-16.37,-47.37,-47.17,0,*64
1513450851.22,28198,7.38,72242.0,-16.37,-47.45,-47.23,0,*69
1513450852.46,28199,7.38,72244.5,-16.37,-47.23,-47.17,0,*6F
1513450853.7,28200,7.38,72244.8,-16.37,-47.37,-47.17,0,*69
1513450854.95,28201,7.38,72242.8,-16.37,-47.23,-46.97,0,*64
1513450856.21,28202,7.38,72242.8,-16.37,-47.23,-47.03,0,*6B
1513450857.48,28203,7.38,72240.0,-16.39,-47.45,-47.09,0,*6E
1513450858.75,28204,7.38,72242.3,-16.37,-47.03,-46.89,0,*6C
1513450859.99,28205,7.38,72242.8,-16.37,-46.97,-46.89,0,*61
1513450861.26,28206,7.38,72242.0,-16.35,-46.75,-46.69,0,*62
1513450862.53,28207,7.38,72242.3,-16.35,-46.97,-46.69,0,*6F
1513450863.74,28208,7.38,72240.0,-16.33,-47.17,-46.97,0,*6E
1513450865.04,28209,7.38,72242.0,-16.35,-47.45,-47.37,0,*65
1513450866.31,28210,7.38,72242.3,-16.35,-47.45,-47.17,0,*6F
1513450867.56,28211,7.38,72240.5,-16.33,-47.37,-46.83,0,*61
1513450868.79,28212,7.38,72240.5,-16.33,-46.97,-46.83,0,*69
1513450870.01,28213,7.38,72238.0,-16.33,-47.09,-46.83,0,*6E
1513450871.23,28214,7.38,72242.5,-16.33,-47.31,-46.97,0,*67
1513450872.48,28215,7.38,72242.5,-16.33,-47.37,-47.31,0,*6D
1513450873.75,28216,7.38,72244.3,-16.31,-47.37,-47.31,0,*6C
1513450875.02,28217,7.38,72240.3,-16.35,-47.57,-47.45,0,*6C
1513450876.26,28218,7.38,72242.5,-16.33,-47.71,-47.51,0,*64
1513450877.52,28219,7.38,72240.0,-16.31,-47.79,-47.57,0,*69
1513450878.79,28220,7.38,72240.5,-16.33,-47.93,-47.79,0,*69
1513450880.04,28221,7.38,72240.0,-16.35,-47.99,-47.85,0,*67
1513450881.3,28222,7.38,72242.0,-16.35,-47.57,-47.37,0,*6F
1513450882.55,28223,7.38,72242.8,-16.35,-47.85,-47.57,0,*67
1513450883.79,28224,7.38,72244.3,-16.33,-47.57,-47.37,0,*6F
1513450885.06,28225,7.38,72240.5,-16.35,-47.45,-47.17,0,*69
1513450886.32,28226,7.38,72242.8,-16.35,-47.65,-47.45,0,*6F
1513450887.55,28227,7.38,72240.5,-16.33,-47.31,-46.97,0,*67
1513450888.82,28228,7.38,72240.5,-16.35,-46.97,-46.69,0,*62
1513450890.11,28229,7.44,72246.8,-16.35,-47.03,-46.89,0,*61
1513450891.33,28230,7.38,72244.0,-16.33,-47.31,-46.97,0,*61
1513450892.56,28231,7.38,72240.8,-16.33,-46.97,-46.83,0,*68
1513450893.83,28232,7.38,72240.3,-16.33,-46.89,-46.61,0,*68
1513450895.1,28233,7.38,72242.0,-16.33,-46.49,-46.41,0,*67
1513450896.32,28234,7.38,72240.8,-16.29,-47.09,-46.83,0,*60
1513450897.54,28235,7.38,72244.8,-16.29,-47.31,-47.09,0,*69
1513450898.75,28236,7.38,72240.3,-16.29,-47.65,-47.31,0,*60
1513450900.04,28237,7.38,72242.0,-16.31,-47.37,-47.03,0,*6E
1513450901.32,28238,7.38,72240.3,-16.31,-47.31,-46.89,0,*64
1513450902.58,28239,7.38,72242.5,-16.29,-47.23,-47.03,0,*6C
1513450903.82,28240,7.44,72244.3,-16.29,-47.51,-47.45,0,*65
1513450905.03,28241,7.38,72242.5,-16.29,-47.57,-47.57,0,*61
1513450906.3,28242,7.38,72242.5,-16.29,-47.45,-47.23,0,*62
1513450907.54,28243,7.38,72238.5,-16.31,-47.57,-47.17,0,*6E
1513450908.76,28244,7.38,72240.5,-16.29,-47.65,-47.31,0,*65
1513450910.0,28245,7.38,72244.8,-16.31,-47.31,-46.97,0,*61
1513450911.25,28246,7.38,72240.0,-16.29,-47.03,-46.75,0,*66
1513450912.46,28247,7.38,72242.3,-16.29,-47.31,-47.09,0,*6C
1513450913.71,28248,7.38,72240.5,-16.29,-47.03,-46.83,0,*61
1513450914.95,28249,7.38,72244.5,-16.29,-47.45,-47.09,0,*61
1513450916.19,28250,7.38,72242.5,-16.29,-47.31,-47.03,0,*60
1513450917.46,28251,7.38,72242.3,-16.29,-47.45,-47.03,0,*62
1513450918.73,28252,7.38,72240.3,-16.27,-47.03,-46.75,0,*6D
1513450919.94,28253,7.38,72242.8,-16.29,-47.09,-46.75,0,*68
1513450921.18,28254,7.38,72240.8,-16.23,-47.17,-46.97,0,*66
1513450922.48,28255,7.38,72242.8,-16.27,-47.45,-47.23,0,*6A
1513450923.74,28256,7.38,72246.3,-16.27,-47.23,-47.09,0,*61
1513450925.01,28257,7.38,72242.8,-16.23,-47.57,-47.23,0,*6F
1513450926.29,28258,7.38,72242.5,-16.23,-47.37,-47.03,0,*64
1513450927.54,28259,7.38,72246.5,-16.27,-47.31,-47.09,0,*6D
1513450928.81,28260,7.38,72242.3,-16.27,-47.31,-47.23,0,*6F
1513450930.1,28261,7.38,72240.5,-16.27,-47.71,-47.45,0,*6A
1513450931.34,28262,7.38,72240.3,-16.27,-47.51,-47.31,0,*68
1513450932.61,28263,7.38,72246.8,-16.27,-47.31,-47.23,0,*6C
1513450933.87,28264,7.38,72242.8,-16.27,-47.45,-47.09,0,*60
1513450935.16,28265,7.38,72244.8,-16.27,-47.23,-47.03,0,*6B
1513450936.42,28266,7.38,72242.5,-16.27,-47.71,-47.51,0,*68
1513450937.66,28267,7.38,72244.5,-16.27,-47.31,-47.09,0,*60
1513450938.92,28268,7.38,72246.5,-16.27,-47.71,-47.51,0,*66
1513450940.18,28269,7.38,72242.3,-16.27,-47.85,-47.71,0,*6E
1513450941.43,28270,7.38,72240.5,-16.27,-48.07,-47.85,0,*68
1513450942.69,28271,7.38,72246.0,-16.27,-47.93,-47.51,0,*62
1513450943.97,28272,7.38,72242.5,-16.29,-47.45,-47.23,0,*61
1513450945.23,28273,7.38,72244.8,-16.31,-47.37,-47.17,0,*6B
1513450946.53,28274,7.38,72246.5,-16.27,-47.45,-47.45,0,*69
1513450947.77,28275,7.38,72240.5,-16.27,-47.85,-47.51,0,*61
1513450949.06,28276,7.38,72242.0,-16.27,-47.93,-47.71,0,*67
1513450950.3,28277,7.38,72242.0,-16.27,-47.85,-47.65,0,*64
1513450951.54,28278,7.38,72244.5,-16.27,-47.31,-47.09,0,*6E
1513450952.81,28279,7.38,72246.0,-16.29,-47.23,-46.89,0,*6B
1513450954.07,28280,7.38,72242.5,-16.29,-47.23,-47.03,0,*6E
1513450955.36,28281,7.38,72240.3,-16.27,-47.45,-47.03,0,*61
1513450956.62,28282,7.38,72240.3,-16.23,-47.23,-46.97,0,*6A
1513450957.91,28283,7.38,72240.5,-16.27,-47.23,-46.89,0,*60
1513450959.16,28284,7.38,72244.0,-16.27,-47.09,-46.75,0,*6C
1513450960.43,28285,7.38,72244.5,-16.27,-46.89,-46.55,0,*66
1513450961.69,28286,7.44,72244.5,-16.23,-46.69,-46.35,0,*69
1513450962.94,28287,7.38,72240.8,-16.27,-46.55,-46.35,0,*63
1513450964.2,28288,7.38,72242.0,-16.23,-47.03,-46.75,0,*6E
1513450965.44,28289,7.38,72242.5,-16.23,-47.17,-46.83,0,*63
1513450966.66,28290,7.38,72240.8,-16.21,-46.83,-46.55,0,*6E
1513450967.87,28291,7.38,72242.8,-16.21,-47.17,-46.83,0,*68
1513450969.12,28292,7.38,72240.3,-16.21,-46.83,-46.49,0,*61
1513450970.33,28293,7.38,72244.3,-16.21,-46.97,-46.55,0,*68
1513450971.56,28294,7.44,72246.5,-16.19,-46.83,-46.55,0,*61
1513450972.81,28295,7.38,72242.0,-16.19,-46.97,-46.69,0,*6A
1513450974.09,28296,7.38,72240.8,-16.19,-46.49,-46.27,0,*60
1513450975.37,28297,7.38,72240.3,-16.19,-46.49,-46.15,0,*60
1513450976.64,28298,7.38,72242.8,-16.17,-46.49,-46.21,0,*66
1513450977.94,28299,7.38,72246.5,-16.17,-46.69,-46.27,0,*63
1513450979.21,28300,7.38,72242.8,-16.15,-46.49,-46.07,0,*60
1513450980.48,28301,7.38,72242.0,-16.15,-46.61,-46.27,0,*69
1513450981.76,28302,7.38,72244.3,-16.15,-46.89,-46.49,0,*64
1513450983.05,28303,7.38,72244.0,-16.13,-47.03,-46.61,0,*6A
1513450984.27,28304,7.38,72244.5,-16.15,-47.31,-46.97,0,*63
1513450985.51,28305,7.38,72242.3,-16.15,-47.37,-47.17,0,*6D
1513450986.73,28306,7.38,72242.5,-16.15,-47.51,-47.31,0,*6A
1513450987.94,28307,7.38,72240.8,-16.15,-47.51,-47.17,0,*6F
1513450989.19,28308,7.38,72244.0,-16.15,-47.37,-47.17,0,*60
1513450990.4,28309,7.38,72240.8,-16.15,-47.51,-47.17,0,*61
1513450991.62,28310,7.38,72242.0,-16.15,-47.51,-47.31,0,*6D
1513450992.91,28311,7.38,72242.3,-16.13,-47.23,-46.89,0,*6D
1513450994.18,28312,7.38,72244.5,-16.13,-47.09,-46.69,0,*68
1513450995.45,28313,7.38,72244.5,-16.13,-47.09,-46.89,0,*67
1513450996.72,28314,7.38,72242.8,-16.13,-47.03,-46.83,0,*60
1513450997.96,28315,7.38,72240.0,-16.15,-47.09,-46.89,0,*67
1513450999.21,28316,7.38,72246.8,-16.15,-46.97,-46.61,0,*64
1513451000.46,28317,7.44,72244.5,-16.13,-46.83,-46.55,0,*61
1513451001.74,28318,7.38,72242.0,-16.13,-47.03,-46.61,0,*60
1513451003.01,28319,7.38,72242.8,-16.11,-47.03,-46.69,0,*6B
1513451004.25,28320,7.38,72242.3,-16.13,-46.83,-46.55,0,*65
1513451005.5,28321,7.38,72244.0,-16.13,-46.55,-46.35,0,*69
1513451006.76,28322,7.38,72244.5,-16.11,-46.69,-46.41,0,*64
1513451008.03,28323,7.38,72244.0,-16.11,-46.89,-46.61,0,*69
1513451009.29,28324,7.38,72244.3,-16.11,-47.03,-46.69,0,*65
1513451010.56,28325,7.38,72240.3,-16.11,-46.89,-46.69,0,*67
1513451011.83,28326,7.38,72244.5,-16.11,-47.03,-46.69,0,*67
1513451013.07,28327,7.38,72242.3,-16.11,-47.09,-46.69,0,*6C
1513451014.34,28328,7.38,72244.5,-16.09,-46.75,-46.49,0,*62
1513451015.58,28329,7.38,72242.5,-16.09,-46.97,-46.55,0,*62
1513451016.85,28330,7.38,72246.3,-16.09,-47.03,-46.75,0,*64
1513451018.12,28331,7.38,72244.5,-16.09,-46.97,-46.61,0,*6C
1513451019.36,28332,7.38,72240.8,-16.07,-47.03,-46.55,0,*6A
1513451020.58,28333,7.38,72244.5,-16.07,-47.17,-46.97,0,*60
1513451021.84,28334,7.38,72246.3,-16.07,-47.23,-47.03,0,*6C
1513451023.05,28335,7.38,72246.8,-16.07,-47.17,-46.97,0,*66
1513451024.34,28336,7.38,72244.0,-16.09,-47.23,-47.03,0,*60
1513451025.56,28337,7.38,72240.3,-16.07,-47.17,-46.83,0,*61
1513451026.8,28338,7.38,72246.3,-16.07,-47.37,-47.17,0,*60
1513451028.07,28339,7.38,72242.3,-16.09,-47.03,-46.75,0,*6D
1513451029.32,28340,7.38,72244.5,-16.09,-46.97,-46.75,0,*6F
1513451030.57,28341,7.38,72244.8,-16.07,-46.83,-46.49,0,*6A
1513451031.81,28342,7.38,72242.3,-16.07,-46.61,-46.35,0,*6E
1513451033.06,28343,7.38,72244.8,-16.07,-46.83,-46.49,0,*68
1513451034.31,28344,7.38,72244.3,-16.07,-46.83,-46.49,0,*6F
1513451035.54,28345,7.38,72240.0,-16.07,-46.83,-46.55,0,*63
1513451036.81,28346,7.44,72246.8,-16.05,-46.97,-46.69,0,*68
1513451038.07,28347,7.38,72244.5,-16.05,-46.75,-46.41,0,*6F
1513451039.29,28348,7.38,72240.5,-16.07,-46.97,-46.75,0,*69
1513451040.56,28349,7.38,72242.8,-16.05,-46.97,-46.69,0,*67
1513451041.8,28350,7.38,72242.8,-16.05,-46.55,-46.21,0,*6D
1513451043.1,28351,7.38,72242.8,-16.01,-46.89,-46.49,0,*67
1513451044.37,28352,7.38,72244.5,-16.01,-46.75,-46.49,0,*67
1513451045.67,28353,7.44,72246.3,-16.01,-46.27,-46.07,0,*6B
1513451046.89,28354,7.38,72244.3,-15.99,-46.21,-46.01,0,*6E
1513451048.14,28355,7.38,72240.5,-15.99,-46.83,-46.41,0,*63
1513451049.4,28356,7.38,72244.0,-16.01,-46.41,-46.21,0,*6A
1513451050.67,28357,7.38,72244.5,-15.97,-46.35,-46.15,0,*63
1513451051.97,28358,7.38,72244.8,-15.97,-46.41,-46.15,0,*6F
1513451053.23,28359,7.38,72242.3,-15.97,-46.69,-46.35,0,*66
1513451054.5,28360,7.38,72240.5,-15.97,-46.61,-46.35,0,*64
1513451055.77,28361,7.38,72246.8,-15.97,-46.83,-46.49,0,*62
1513451057.02,28362,7.38,72244.5,-15.95,-46.75,-46.41,0,*62
1513451058.26,28363,7.38,72246.8,-15.95,-46.97,-46.61,0,*6D
1513451059.5,28364,7.38,72246.0,-15.95,-46.83,-46.61,0,*6F
1513451060.73,28365,7.38,72244.3,-15.95,-46.97,-46.75,0,*6E
1513451061.97,28366,7.38,72242.0,-15.95,-47.03,-46.83,0,*68
1513451063.24,28367,7.38,72246.0,-15.95,-47.37,-47.03,0,*67
1513451064.48,28368,7.38,72246.5,-15.95,-47.23,-47.17,0,*68
1513451065.74,28369,7.38,72242.8,-15.95,-47.37,-47.03,0,*69
1513451066.99,28370,7.38,72240.0,-15.99,-47.51,-47.45,0,*6F
1513451068.25,28371,7.38,72242.0,-15.97,-47.71,-47.31,0,*61
1513451069.49,28372,7.38,72246.5,-15.99,-47.31,-47.03,0,*69
1513451070.76,28373,7.38,72242.8,-15.97,-47.79,-47.31,0,*6B
1513451072.01,28374,7.38,72242.0,-15.99,-47.79,-47.51,0,*64
1513451073.27,28375,7.38,72240.8,-15.97,-47.93,-47.65,0,*68
1513451074.51,28376,7.38,72244.5,-15.99,-48.13,-47.99,0,*61
1513451075.78,28377,7.38,72244.8,-15.99,-48.13,-47.71,0,*66
1513451077.0,28378,7.38,72244.5,-15.99,-47.99,-47.51,0,*66
1513451078.26,28379,7.38,72244.5,-16.01,-47.99,-47.71,0,*67
1513451079.5,28380,7.38,72240.8,-15.99,-47.99,-47.71,0,*63
1513451080.74,28381,7.38,72244.0,-15.99,-47.93,-47.51,0,*6A
1513451081.98,28382,7.38,72242.0,-16.01,-47.85,-47.57,0,*6A
1513451083.24,28383,7.38,72246.0,-16.05,-47.71,-47.51,0,*62
1513451084.49,28384,7.38,72244.3,-16.05,-47.71,-47.51,0,*65
1513451085.76,28385,7.38,72244.5,-16.05,-47.79,-47.51,0,*6C
1513451087.02,28386,7.38,72242.3,-16.01,-47.57,-47.37,0,*67
1513451088.28,28387,7.38,72246.3,-16.05,-47.85,-47.71,0,*6F
1513451089.55,28388,7.38,72242.3,-16.01,-47.79,-47.57,0,*63
1513451090.79,28389,7.38,72246.5,-16.05,-47.57,-47.31,0,*6A
1513451092.02,28390,7.38,72242.3,-16.05,-47.51,-47.31,0,*64
1513451093.29,28391,7.38,72244.8,-16.05,-47.57,-47.37,0,*65
1513451094.55,28392,7.38,72244.0,-16.05,-47.37,-47.31,0,*66
1513451095.79,28393,7.38,72246.5,-16.05,-47.57,-47.51,0,*67
1513451097.06,28394,7.38,72246.3,-16.01,-47.37,-47.31,0,*64
1513451098.3,28395,7.38,72242.0,-16.05,-47.51,-47.31,0,*61
1513451099.56,28396,7.38,72240.3,-16.05,-47.57,-47.37,0,*62
1513451100.81,28397,7.38,72244.8,-16.01,-47.31,-46.97,0,*6C
1513451102.07,28398,7.38,72244.3,-16.05,-47.37,-46.97,0,*61
1513451103.31,28399,7.38,72246.0,-16.05,-47.09,-46.97,0,*6D
1513451104.55,28400,7.38,72246.8,-16.05,-47.17,-46.97,0,*65
1513451105.78,28401,7.38,72244.8,-16.05,-47.17,-46.97,0,*64
1513451107.02,28402,7.38,72242.3,-16.05,-47.51,-47.09,0,*63
1513451108.29,28403,7.38,72242.3,-16.01,-47.37,-47.09,0,*66
1513451109.52,28404,7.38,72244.3,-16.05,-47.51,-47.17,0,*6A
1513451110.76,28405,7.38,72244.3,-16.01,-47.51,-47.31,0,*6B
1513451112.02,28406,7.38,72242.8,-16.01,-47.57,-47.37,0,*68
1513451113.26,28407,7.38,72242.5,-16.05,-47.57,-47.31,0,*6B
1513451114.51,28408,7.38,72242.3,-16.01,-47.31,-47.09,0,*6B
1513451115.75,28409,7.38,72242.5,-16.05,-47.09,-46.75,0,*6F
1513451117.02,28410,7.38,72244.5,-16.01,-47.37,-47.09,0,*64
1513451118.25,28411,7.38,72242.8,-16.05,-47.51,-47.09,0,*61
1513451119.49,28412,7.38,72242.8,-16.05,-47.51,-47.31,0,*69
1513451120.72,28413,7.38,72244.5,-16.05,-47.57,-47.51,0,*68
1513451121.99,28414,7.38,72246.3,-16.05,-47.79,-47.51,0,*63
1513451123.23,28415,7.38,72244.8,-16.07,-47.65,-47.45,0,*68
1513451124.49,28416,7.38,72244.8,-16.05,-47.57,-47.37,0,*6D
1513451125.73,28417,7.38,72244.3,-16.07,-47.65,-47.45,0,*6A
1513451126.96,28418,7.38,72244.3,-16.05,-47.51,-47.17,0,*67
1513451128.23,28419,7.38,72242.3,-16.05,-47.37,-47.31,0,*62
1513451129.49,28420,7.38,72240.3,-16.05,-47.57,-47.37,0,*68
1513451130.73,28421,7.38,72244.3,-16.05,-47.51,-47.31,0,*69
1513451131.99,28422,7.38,72244.3,-16.05,-47.17,-46.89,0,*6A
1513451133.23,28423,7.38,72242.5,-16.05,-47.57,-47.17,0,*69
1513451134.46,28424,7.38,72244.3,-16.05,-47.57,-47.17,0,*6E
1513451135.74,28425,7.38,72246.0,-16.05,-47.71,-47.37,0,*69
1513451137.03,28426,7.38,72246.5,-16.05,-47.71,-47.37,0,*6A
1513451138.28,28427,7.38,72246.8,-16.05,-47.71,-47.51,0,*6B
1513451139.52,28428,7.38,72242.3,-16.05,-47.57,-47.51,0,*60
1513451140.76,28429,7.38,72242.8,-16.07,-47.57,-47.37,0,*63
1513451142.05,28430,7.38,72246.3,-16.09,-47.45,-47.03,0,*61
1513451143.28,28431,7.38,72244.5,-16.05,-47.17,-47.09,0,*61
1513451144.52,28432,7.38,72242.5,-16.05,-47.51,-47.09,0,*60
1513451145.79,28433,7.38,72244.5,-16.07,-47.37,-47.23,0,*6B
1513451147.03,28434,7.38,72246.0,-16.07,-47.57,-47.37,0,*6F
1513451148.28,28435,7.38,72246.3,-16.07,-47.03,-46.83,0,*61
1513451149.54,28436,7.38,72246.3,-16.07,-47.37,-47.03,0,*6C
1513451150.78,28437,7.38,72242.3,-16.05,-47.31,-47.17,0,*6C
1513451152.03,28438,7.38,72242.0,-16.07,-47.57,-47.45,0,*66
1513451153.28,28439,7.38,72244.8,-16.05,-47.71,-47.31,0,*62
1513451154.53,28440,7.38,72244.5,-16.01,-47.51,-47.31,0,*6A
1513451155.79,28441,7.38,72244.3,-16.05,-47.09,-46.89,0,*60
1513451157.04,28442,7.38,72244.3,-16.07,-46.97,-46.61,0,*61
1513451158.28,28443,7.38,72242.8,-16.01,-47.31,-47.09,0,*64
1513451159.55,28444,7.38,72244.3,-16.01,-47.09,-46.89,0,*61
1513451160.82,28445,7.38,72244.5,-16.01,-46.97,-46.69,0,*68
1513451162.06,28446,7.38,72246.5,-16.05,-47.09,-46.97,0,*68
1513451163.34,28447,7.38,72244.5,-16.05,-46.69,-46.41,0,*65
1513451164.61,28448,7.38,72246.0,-16.01,-47.09,-46.89,0,*6D
1513451165.88,28449,7.38,72242.0,-16.05,-46.97,-46.89,0,*6E
1513451167.12,28450,7.38,72244.8,-16.01,-47.51,-47.31,0,*6B
1513451168.39,28451,7.38,72246.0,-16.01,-47.37,-47.17,0,*6E
1513451169.66,28452,7.38,72240.0,-16.01,-47.37,-47.31,0,*69
1513451170.92,28453,7.38,72244.5,-16.05,-47.37,-47.09,0,*67
1513451172.19,28454,7.38,72242.5,-16.01,-46.97,-46.69,0,*68
1513451173.44,28455,7.38,72242.5,-16.01,-46.97,-46.55,0,*66
1513451174.71,28456,7.38,72242.8,-16.01,-47.17,-46.89,0,*6D
1513451175.94,28457,7.38,72248.0,-16.05,-47.51,-47.51,0,*6E
1513451177.2,28458,7.38,72244.3,-16.05,-47.51,-47.37,0,*61
1513451178.44,28459,7.38,72244.0,-16.01,-47.57,-47.31,0,*64
1513451179.69,28460,7.38,72242.5,-16.01,-47.51,-47.31,0,*68
1513451180.93,28461,7.38,72242.8,-16.01,-47.31,-47.17,0,*6B
1513451182.16,28462,7.38,72244.3,-16.05,-47.17,-46.97,0,*61
1513451183.4,28463,7.38,72242.3,-16.05,-47.09,-46.97,0,*6F
1513451184.68,28464,7.38,72242.5,-16.01,-46.89,-46.75,0,*69
1513451185.95,28465,7.38,72246.8,-16.01,-46.97,-46.69,0,*6A
1513451187.19,28466,7.38,72244.3,-16.05,-46.97,-46.55,0,*62
1513451188.44,28467,7.38,72244.3,-16.01,-47.09,-46.75,0,*63
1513451189.68,28468,7.38,72244.5,-16.01,-46.97,-46.75,0,*6A
1513451190.93,28469,7.38,72246.3,-16.01,-46.97,-46.75,0,*6B
1513451192.23,28470,7.38,72242.0,-16.01,-46.89,-46.49,0,*63
1513451193.5,28471,7.38,72244.5,-16.01,-46.89,-46.55,0,*6F
1513451194.77,28472,7.38,72242.8,-16.01,-47.09,-46.89,0,*64
1513451196.01,28473,7.38,72240.8,-16.01,-47.17,-46.97,0,*65
1513451197.26,28474,7.38,72246.0,-16.01,-47.31,-47.09,0,*60
1513451198.53,28475,7.38,72242.5,-16.01,-47.09,-46.89,0,*63
1513451199.77,28476,7.38,72248.0,-16.01,-46.97,-46.75,0,*65
1513451201.04,28477,7.38,72246.8,-16.01,-47.09,-46.89,0,*61
1513451202.29,28478,7.38,72242.5,-15.99,-46.89,-46.83,0,*6F
1513451203.57,28479,7.38,72246.3,-15.99,-46.89,-46.49,0,*68
1513451204.82,28480,7.38,72244.8,-15.99,-46.89,-46.83,0,*68
1513451206.09,28481,7.38,72244.0,-15.99,-46.89,-46.61,0,*65
1513451207.34,28482,7.38,72242.5,-15.99,-47.03,-46.83,0,*69
1513451208.61,28483,7.38,72244.0,-15.99,-46.89,-46.61,0,*67
1513451209.88,28484,7.38,72244.3,-15.99,-46.89,-46.61,0,*60
1513451211.15,28485,7.38,72244.5,-15.99,-47.03,-46.89,0,*64
1513451212.41,28486,7.38,72246.3,-15.99,-47.03,-46.89,0,*67
1513451213.71,28487,7.38,72244.3,-15.97,-46.89,-46.61,0,*6D
1513451214.97,28488,7.38,72246.3,-15.97,-46.69,-46.35,0,*6D
1513451216.24,28489,7.38,72246.5,-15.97,-46.83,-46.41,0,*6B
1513451217.54,28490,7.38,72242.3,-15.97,-46.61,-46.41,0,*6F
1513451218.8,28491,7.38,72244.3,-15.97,-46.83,-46.61,0,*60
1513451220.09,28492,7.38,72246.5,-15.97,-46.89,-46.61,0,*69
1513451221.34,28493,7.38,72240.0,-15.95,-46.83,-46.61,0,*60
1513451222.61,28494,7.38,72240.8,-15.97,-46.83,-46.69,0,*6D
1513451223.9,28495,7.38,72244.3,-15.97,-46.89,-46.69,0,*66
1513451225.19,28496,7.38,72244.8,-15.97,-46.89,-46.61,0,*6D
1513451226.46,28497,7.38,72244.3,-15.95,-46.61,-46.27,0,*6A
1513451227.73,28498,7.38,72240.0,-15.93,-46.75,-46.41,0,*66
1513451228.95,28499,7.38,72244.8,-15.95,-46.75,-46.35,0,*62
1513451230.17,28500,7.38,72244.0,-15.95,-46.83,-46.75,0,*6E
1513451231.43,28501,7.38,72244.3,-15.93,-46.97,-46.83,0,*65
1513451232.67,28502,7.38,72244.0,-15.95,-46.75,-46.41,0,*62
1513451233.96,28503,7.38,72246.5,-15.93,-46.41,-46.07,0,*60
1513451235.23,28504,7.38,72244.3,-15.93,-46.55,-46.15,0,*61
1513451236.53,28505,7.38,72244.3,-15.93,-46.41,-46.07,0,*66
1513451237.77,28506,7.38,72244.5,-15.93,-46.75,-46.55,0,*65
1513451239.04,28507,7.38,72244.8,-15.93,-46.75,-46.41,0,*61
1513451240.3,28508,7.38,72244.5,-15.89,-46.07,-45.87,0,*69
1513451241.55,28509,7.38,72244.8,-15.91,-46.01,-45.81,0,*61
1513451242.8,28510,7.38,72244.0,-15.89,-45.81,-45.61,0,*65
1513451244.04,28511,7.38,72244.0,-15.89,-46.01,-45.87,0,*67
1513451245.31,28512,7.38,72246.0,-15.89,-46.69,-46.35,0,*60
1513451246.57,28513,7.38,72246.3,-15.89,-46.49,-46.21,0,*66
1513451247.87,28514,7.38,72242.0,-15.85,-46.41,-46.15,0,*62
1513451249.11,28515,7.38,72244.3,-15.85,-46.21,-45.95,0,*6E
1513451250.36,28516,7.38,72244.5,-15.85,-46.21,-45.95,0,*6D
1513451251.65,28517,7.38,72244.8,-15.85,-46.61,-46.41,0,*62
1513451252.93,28518,7.38,72246.3,-15.83,-46.49,-46.15,0,*60
1513451254.19,28519,7.38,72246.0,-15.83,-46.69,-46.41,0,*62
1513451255.45,28520,7.38,72246.0,-15.83,-46.69,-46.61,0,*6A
1513451256.72,28521,7.38,72244.5,-15.83,-46.49,-46.27,0,*6B
1513451257.99,28522,7.38,72246.8,-15.83,-46.69,-46.41,0,*6A
1513451259.26,28523,7.38,72244.3,-15.81,-46.35,-46.07,0,*62
1513451260.5,28524,7.38,72246.3,-15.83,-46.83,-46.69,0,*62
1513451261.75,28525,7.38,72246.8,-15.83,-46.83,-46.69,0,*63
1513451263.02,28526,7.38,72240.0,-15.83,-46.69,-46.49,0,*66
1513451264.28,28527,7.38,72244.3,-15.83,-46.69,-46.41,0,*6F
1513451265.55,28528,7.38,72248.5,-15.83,-46.49,-46.15,0,*63
1513451266.8,28529,7.38,72246.3,-15.81,-46.55,-46.35,0,*6F
1513451268.05,28530,7.38,72246.0,-15.81,-46.83,-46.55,0,*6A
1513451269.29,28531,7.38,72248.0,-15.81,-46.83,-46.75,0,*69
1513451270.58,28532,7.38,72246.0,-15.81,-46.61,-46.41,0,*61
1513451271.88,28533,7.38,72246.3,-15.81,-46.61,-46.41,0,*60
1513451273.17,28534,7.38,72246.8,-15.81,-46.61,-46.41,0,*67
1513451274.46,28535,7.38,72246.5,-15.81,-46.61,-46.41,0,*66
1513451275.71,28536,7.38,72244.5,-15.81,-46.83,-46.75,0,*6E
1513451276.98,28537,7.38,72250.3,-15.77,-46.97,-46.69,0,*6E
1513451278.25,28538,7.38,72250.0,-15.81,-47.03,-46.83,0,*60
1513451279.49,28539,7.38,72244.8,-15.81,-47.17,-46.97,0,*61
1513451280.74,28540,7.38,72246.5,-15.81,-46.83,-46.75,0,*6F
1513451281.98,28541,7.38,72246.0,-15.77,-46.55,-46.35,0,*68
1513451283.25,28542,7.38,72240.5,-15.81,-46.83,-46.61,0,*68
1513451284.5,28543,7.38,72244.3,-15.81,-46.83,-46.75,0,*6C
1513451285.74,28544,7.38,72244.8,-15.81,-46.75,-46.75,0,*62
1513451287.0,28545,7.38,72246.5,-15.81,-46.83,-46.61,0,*6F
1513451288.25,28546,7.38,72242.8,-15.81,-46.83,-46.75,0,*69
1513451289.52,28547,7.38,72244.0,-15.81,-47.03,-46.83,0,*68
1513451290.79,28548,7.38,72242.3,-15.81,-46.97,-46.61,0,*67
1513451292.06,28549,7.38,72244.5,-15.81,-46.97,-46.61,0,*66
1513451293.31,28550,7.38,72244.0,-15.81,-46.97,-46.75,0,*6B
1513451294.58,28551,7.38,72246.0,-15.81,-46.83,-46.61,0,*6A
1513451295.84,28552,7.38,72246.5,-15.81,-46.97,-46.61,0,*6C
1513451297.09,28553,7.38,72246.3,-15.81,-46.75,-46.55,0,*66
1513451298.33,28554,7.38,72246.0,-15.81,-46.83,-46.75,0,*6A
1513451299.57,28555,7.38,72244.8,-15.77,-46.75,-46.35,0,*6F
1513451300.82,28556,7.38,72246.0,-15.77,-46.55,-46.35,0,*6E
1513451302.06,28557,7.38,72244.0,-15.81,-46.55,-46.21,0,*63